TimeEST,TemperatureF,Dew PointF,Humidity,Sea Level PressureIn,VisibilityMPH,Wind Direction,Wind SpeedMPH,Gust SpeedMPH,PrecipitationIn,Events,Conditions,WindDirDegrees,DateUTC
12:16 AM,41.0,35.6,81,29.81,10.0,North,3.5,-,N/A,,Overcast,350,2012-12-11 05:16:00
12:37 AM,41.0,35.6,81,29.81,10.0,NNW,5.8,-,N/A,,Mostly Cloudy,340,2012-12-11 05:37:00
12:58 AM,41.0,35.6,81,29.82,10.0,South,3.5,-,N/A,,Mostly Cloudy,170,2012-12-11 05:58:00
1:20 AM,41.0,33.8,76,29.83,10.0,Calm,Calm,-,N/A,,Mostly Cloudy,0,2012-12-11 06:20:00
1:41 AM,41.0,33.8,76,29.84,10.0,WSW,5.8,-,N/A,,Overcast,250,2012-12-11 06:41:00
2:02 AM,41.0,33.8,76,29.84,10.0,NE,3.5,-,N/A,,Overcast,50,2012-12-11 07:02:00
2:24 AM,41.0,33.8,76,29.85,10.0,Calm,Calm,-,N/A,,Overcast,0,2012-12-11 07:24:00
2:45 AM,41.0,33.8,76,29.86,10.0,NNW,3.5,-,N/A,,Overcast,340,2012-12-11 07:45:00
3:06 AM,41.0,33.8,76,29.87,10.0,West,10.4,-,N/A,,Mostly Cloudy,260,2012-12-11 08:06:00
3:49 AM,41.0,33.8,76,29.89,10.0,WSW,8.1,-,N/A,,Mostly Cloudy,250,2012-12-11 08:49:00
4:10 AM,41.0,33.8,76,29.90,10.0,Calm,Calm,-,N/A,,Mostly Cloudy,0,2012-12-11 09:10:00
4:31 AM,41.0,33.8,76,29.90,10.0,West,3.5,-,N/A,,Overcast,260,2012-12-11 09:31:00
4:53 AM,41.0,33.8,76,29.91,10.0,West,4.6,-,N/A,,Overcast,270,2012-12-11 09:53:00
5:14 AM,41.0,33.8,76,29.92,10.0,WNW,4.6,-,N/A,,Mostly Cloudy,290,2012-12-11 10:14:00
5:35 AM,39.2,33.8,81,29.93,10.0,WNW,3.5,-,N/A,,Overcast,290,2012-12-11 10:35:00
5:57 AM,39.2,33.8,81,29.94,10.0,Calm,Calm,-,N/A,,Mostly Cloudy,0,2012-12-11 10:57:00
6:18 AM,39.2,35.6,87,29.95,10.0,West,8.1,-,N/A,,Overcast,270,2012-12-11 11:18:00
6:39 AM,39.2,33.8,81,29.95,10.0,WNW,3.5,-,N/A,,Mostly Cloudy,290,2012-12-11 11:39:00
7:00 AM,39.2,33.8,81,29.97,10.0,WSW,8.1,-,N/A,,Mostly Cloudy,250,2012-12-11 12:00:00
7:22 AM,39.2,33.8,81,29.97,10.0,WSW,9.2,-,N/A,,Overcast,250,2012-12-11 12:22:00
7:43 AM,41.0,33.8,76,29.99,10.0,West,5.8,-,N/A,,Overcast,280,2012-12-11 12:43:00
8:04 AM,39.2,33.8,81,30.00,10.0,West,5.8,-,N/A,,Mostly Cloudy,270,2012-12-11 13:04:00
8:25 AM,39.2,33.8,81,30.01,10.0,West,5.8,-,N/A,,Overcast,280,2012-12-11 13:25:00
8:47 AM,39.2,32.0,75,30.03,10.0,West,6.9,-,N/A,,Overcast,280,2012-12-11 13:47:00
9:08 AM,39.2,32.0,75,30.04,10.0,WSW,4.6,-,N/A,,Overcast,250,2012-12-11 14:08:00
9:29 AM,41.0,32.0,70,30.04,10.0,West,5.8,-,N/A,,Overcast,270,2012-12-11 14:29:00
9:50 AM,39.2,32.0,75,30.04,10.0,West,5.8,-,N/A,,Overcast,260,2012-12-11 14:50:00
10:12 AM,39.2,32.0,75,30.05,10.0,WSW,5.8,-,N/A,,Overcast,240,2012-12-11 15:12:00
10:33 AM,39.2,32.0,75,30.06,10.0,West,5.8,-,N/A,,Overcast,270,2012-12-11 15:33:00
10:54 AM,41.0,32.0,70,30.06,10.0,SW,5.8,-,N/A,,Overcast,220,2012-12-11 15:54:00
11:36 AM,41.0,33.8,76,30.06,10.0,SSW,6.9,-,N/A,,Overcast,210,2012-12-11 16:36:00
11:58 AM,39.2,32.0,75,30.06,10.0,West,3.5,-,N/A,,Overcast,260,2012-12-11 16:58:00
12:19 PM,41.0,33.8,76,30.07,10.0,North,4.6,-,N/A,,Overcast,360,2012-12-11 17:19:00
12:40 PM,39.2,32.0,75,30.07,10.0,WNW,3.5,17.3,N/A,,Mostly Cloudy,300,2012-12-11 17:40:00
1:01 PM,41.0,32.0,70,30.07,10.0,West,5.8,-,N/A,,Mostly Cloudy,280,2012-12-11 18:01:00
1:23 PM,39.2,32.0,75,30.07,10.0,WNW,4.6,-,N/A,,Overcast,290,2012-12-11 18:23:00
1:44 PM,39.2,32.0,75,30.08,10.0,West,4.6,-,N/A,,Overcast,280,2012-12-11 18:44:00
2:05 PM,39.2,32.0,75,30.08,10.0,Calm,Calm,-,N/A,,Overcast,0,2012-12-11 19:05:00
2:26 PM,39.2,32.0,75,30.09,10.0,WNW,4.6,-,N/A,,Overcast,300,2012-12-11 19:26:00
2:48 PM,39.2,30.2,70,30.09,10.0,West,8.1,-,N/A,,Overcast,280,2012-12-11 19:48:00
3:09 PM,39.2,30.2,70,30.10,10.0,WNW,6.9,-,N/A,,Overcast,290,2012-12-11 20:09:00
3:30 PM,39.2,30.2,70,30.11,10.0,NW,5.8,-,N/A,,Overcast,310,2012-12-11 20:30:00
3:51 PM,39.2,30.2,70,30.12,10.0,Calm,Calm,-,N/A,,Overcast,0,2012-12-11 20:51:00
4:13 PM,39.2,30.2,70,30.13,10.0,WNW,4.6,-,N/A,,Overcast,290,2012-12-11 21:13:00
4:34 PM,39.2,30.2,70,30.14,10.0,Calm,Calm,-,N/A,,Overcast,0,2012-12-11 21:34:00
4:55 PM,39.2,30.2,70,30.15,10.0,WNW,3.5,-,N/A,,Overcast,290,2012-12-11 21:55:00
5:16 PM,39.2,30.2,70,30.15,10.0,Calm,Calm,-,N/A,,Overcast,0,2012-12-11 22:16:00
5:37 PM,39.2,30.2,70,30.17,10.0,West,6.9,-,N/A,,Overcast,270,2012-12-11 22:37:00
5:59 PM,37.4,30.2,75,30.18,10.0,WNW,3.5,-,N/A,,Overcast,300,2012-12-11 22:59:00
6:20 PM,37.4,30.2,75,30.18,10.0,WNW,4.6,-,N/A,,Overcast,290,2012-12-11 23:20:00
6:41 PM,37.4,28.4,70,30.18,10.0,Calm,Calm,-,N/A,,Overcast,0,2012-12-11 23:41:00
7:02 PM,37.4,28.4,70,30.19,10.0,Calm,Calm,-,N/A,,Overcast,0,2012-12-12 00:02:00
7:24 PM,35.6,28.4,75,30.20,10.0,SW,4.6,-,N/A,,Scattered Clouds,230,2012-12-12 00:24:00
7:45 PM,35.6,28.4,75,30.22,10.0,WSW,3.5,-,N/A,,Mostly Cloudy,240,2012-12-12 00:45:00
8:06 PM,35.6,28.4,75,30.22,10.0,SW,3.5,-,N/A,,Overcast,220,2012-12-12 01:06:00
8:27 PM,35.6,28.4,75,30.22,10.0,Calm,Calm,-,N/A,,Mostly Cloudy,0,2012-12-12 01:27:00
8:49 PM,33.8,28.4,81,30.23,10.0,WSW,3.5,-,N/A,,Clear,240,2012-12-12 01:49:00
9:10 PM,35.6,28.4,75,30.23,10.0,Calm,Calm,-,N/A,,Clear,0,2012-12-12 02:10:00
9:31 PM,33.8,28.4,81,30.23,10.0,NE,3.5,-,N/A,,Clear,40,2012-12-12 02:31:00
9:52 PM,33.8,30.2,87,30.24,10.0,Calm,Calm,-,N/A,,Clear,0,2012-12-12 02:52:00
10:14 PM,33.8,30.2,87,30.25,10.0,Calm,Calm,-,N/A,,Clear,0,2012-12-12 03:14:00
10:35 PM,32.0,30.2,93,30.25,10.0,Calm,Calm,-,N/A,,Clear,0,2012-12-12 03:35:00
10:56 PM,32.0,30.2,93,30.26,10.0,Calm,Calm,-,N/A,,Clear,0,2012-12-12 03:56:00
11:18 PM,32.0,28.4,87,30.25,10.0,Calm,Calm,-,N/A,,Clear,0,2012-12-12 04:18:00